Location: Igon
(43.1667°N, 0.2333°W)
Time: 03:51:58
(UTC+00:00)

SKYMED 3 - Pass Details

Date: 13 April 2021
Orbit: 621 x 624 km, 97.9° (Epoch: 18 May)

Event Time Altitude Azimuth Distance (km) Brightness Sun altitude
Rises 04:16:32 0° 134° (SE) 2,895 8.3 -12.1°
Reaches altitude 10° 04:19:01 10° 121° (ESE) 1,993 7.6 -11.7°
Maximum altitude 04:22:31 25° 67° (ENE) 1,281 7.2 -11.1°
Drops below altitude 10° 04:26:03 10° 13° (NNE) 2,005 7.7 -10.5°
Sets 04:28:33 0° 360° (N) 2,916 8.3 -10.1°
